Station Historical Data
Daily Summary for February 10, 2012 Units:  English    Metric   Both
« Previous Day
Next Day »
Daily Weekly Monthly Yearly Custom
  High: Low: Average:
Temperature: 40.6 °F 30.0 °F 34.5 °F
Dew Point: 36.1 °F 25.7 °F 30.3 °F
Humidity: 96% 69% 85%
Wind Speed: 8.0mph 0.0mph 2mph
Wind Gust: 9.0mph - -
Wind- - South
Pressure: 30.23 in 30.05 in -
Precipitation: 0.05 in    
Historical Graphs
 
 
Tabular Data for February 10, 2012
Time Temperature Dew Point Pressure Wind Wind Speed Wind Gust Humidity Rainfall Rate (Hourly) Conditions
00:00 31.5 °F 26.6 °F 30.23 in NNE 2.0 mph 4.0 mph 82% 0.00 in
00:01 31.4 °F 26.5 °F 30.23 in NNW 3.0 mph 4.0 mph 82% 0.00 in
00:06 31.3 °F 26.5 °F 30.23 in NNW 2.0 mph 4.0 mph 82% 0.00 in
00:11 31.1 °F 26.5 °F 30.23 in NNE 3.0 mph 4.0 mph 83% 0.00 in
00:16 31.0 °F 26.5 °F 30.23 in North 3.0 mph 5.0 mph 83% 0.00 in
00:21 31.0 °F 26.5 °F 30.23 in North 4.0 mph 4.0 mph 83% 0.00 in
00:26 30.9 °F 26.4 °F 30.23 in North 4.0 mph 6.0 mph 83% 0.00 in
00:31 30.8 °F 26.3 °F 30.23 in North 4.0 mph 5.0 mph 83% 0.00 in
00:36 30.9 °F 26.4 °F 30.23 in North 3.0 mph 7.0 mph 83% 0.00 in
00:41 31.0 °F 26.5 °F 30.23 in North 4.0 mph 5.0 mph 83% 0.00 in
00:46 30.9 °F 26.4 °F 30.23 in North 4.0 mph 5.0 mph 83% 0.00 in
00:51 30.9 °F 26.4 °F 30.22 in North 4.0 mph 5.0 mph 83% 0.00 in
00:56 31.0 °F 26.5 °F 30.23 in North 4.0 mph 4.0 mph 83% 0.00 in
01:01 30.9 °F 26.4 °F 30.22 in North 2.0 mph 4.0 mph 83% 0.00 in
01:06 30.9 °F 26.4 °F 30.22 in North 4.0 mph 4.0 mph 83% 0.00 in
01:11 30.9 °F 26.4 °F 30.22 in North 3.0 mph 4.0 mph 83% 0.00 in
01:16 30.8 °F 26.3 °F 30.22 in NNW 5.0 mph 5.0 mph 83% 0.00 in
01:21 30.6 °F 26.1 °F 30.22 in North 4.0 mph 5.0 mph 83% 0.00 in
01:26 30.5 °F 26.0 °F 30.23 in North 4.0 mph 6.0 mph 83% 0.00 in
01:31 30.5 °F 26.0 °F 30.22 in NNE 3.0 mph 6.0 mph 83% 0.00 in
01:36 30.5 °F 26.0 °F 30.22 in NE 3.0 mph 8.0 mph 83% 0.00 in
01:41 30.6 °F 26.1 °F 30.22 in North 3.0 mph 5.0 mph 83% 0.00 in
01:46 30.5 °F 26.0 °F 30.22 in NNE 2.0 mph 5.0 mph 83% 0.00 in
01:47 30.5 °F 26.0 °F 30.22 in North 3.0 mph 5.0 mph 83% 0.00 in
01:52 30.5 °F 26.0 °F 30.21 in North 3.0 mph 5.0 mph 83% 0.00 in
01:57 30.4 °F 25.9 °F 30.21 in NNE 3.0 mph 6.0 mph 83% 0.00 in
02:02 30.5 °F 26.0 °F 30.22 in NNE 3.0 mph 5.0 mph 83% 0.00 in
02:07 30.4 °F 25.9 °F 30.22 in NNW 1.0 mph 4.0 mph 83% 0.00 in
02:12 30.3 °F 25.8 °F 30.22 in NNE 1.0 mph 2.0 mph 83% 0.00 in
02:17 30.1 °F 25.9 °F 30.22 in North 1.0 mph 3.0 mph 84% 0.00 in
02:22 30.1 °F 25.9 °F 30.22 in NNW 2.0 mph 3.0 mph 84% 0.00 in
02:27 30.2 °F 25.7 °F 30.21 in NNE 2.0 mph 3.0 mph 83% 0.00 in
02:32 30.2 °F 25.7 °F 30.21 in NNE 2.0 mph 3.0 mph 83% 0.00 in
02:37 30.3 °F 25.8 °F 30.21 in North 2.0 mph 4.0 mph 83% 0.00 in
02:42 30.3 °F 25.8 °F 30.20 in North 3.0 mph 4.0 mph 83% 0.00 in
02:47 30.2 °F 25.7 °F 30.20 in NE 3.0 mph 3.0 mph 83% 0.00 in
02:52 30.2 °F 25.7 °F 30.19 in NE 4.0 mph 4.0 mph 83% 0.00 in
02:57 30.3 °F 25.8 °F 30.19 in NE 4.0 mph 5.0 mph 83% 0.00 in
03:02 30.3 °F 25.8 °F 30.19 in NNE 2.0 mph 4.0 mph 83% 0.00 in
03:07 30.2 °F 25.7 °F 30.19 in NE 2.0 mph 3.0 mph 83% 0.00 in
03:12 30.2 °F 25.7 °F 30.19 in NNE 3.0 mph 3.0 mph 83% 0.00 in
03:17 30.2 °F 25.7 °F 30.18 in NNE 4.0 mph 4.0 mph 83% 0.00 in
03:22 30.2 °F 25.7 °F 30.19 in NE 2.0 mph 3.0 mph 83% 0.00 in
03:27 30.2 °F 25.7 °F 30.19 in NNE 3.0 mph 4.0 mph 83% 0.00 in
03:32 30.2 °F 25.7 °F 30.19 in NE 2.0 mph 3.0 mph 83% 0.00 in
03:37 30.3 °F 26.1 °F 30.19 in NE 2.0 mph 4.0 mph 84% 0.00 in
03:42 30.3 °F 25.8 °F 30.19 in NE 3.0 mph 3.0 mph 83% 0.00 in
03:48 30.4 °F 25.9 °F 30.18 in NE 2.0 mph 4.0 mph 83% 0.00 in
03:53 30.4 °F 26.1 °F 30.18 in NE 2.0 mph 3.0 mph 84% 0.00 in
03:58 30.5 °F 26.0 °F 30.18 in East 1.0 mph 3.0 mph 83% 0.00 in
04:03 30.6 °F 26.1 °F 30.18 in Calm   3.0 mph 83% 0.00 in
04:08 30.7 °F 26.2 °F 30.18 in ENE 1.0 mph 3.0 mph 83% 0.00 in
04:13 30.7 °F 26.2 °F 30.18 in NE 3.0 mph 3.0 mph 83% 0.00 in
04:18 30.7 °F 26.2 °F 30.18 in NNE 1.0 mph 3.0 mph 83% 0.00 in
04:23 30.6 °F 26.1 °F 30.18 in NNE 2.0 mph 3.0 mph 83% 0.00 in
04:28 30.6 °F 26.1 °F 30.18 in Calm   3.0 mph 83% 0.00 in
04:33 30.6 °F 26.1 °F 30.18 in Calm   3.0 mph 83% 0.00 in
04:38 30.6 °F 26.1 °F 30.17 in NNE 3.0 mph 3.0 mph 83% 0.00 in
04:43 30.6 °F 26.1 °F 30.17 in ENE 4.0 mph 4.0 mph 83% 0.00 in
04:48 30.6 °F 26.1 °F 30.17 in NE 2.0 mph 3.0 mph 83% 0.00 in
04:53 30.5 °F 26.0 °F 30.17 in NE 2.0 mph 4.0 mph 83% 0.00 in
04:58 30.5 °F 26.0 °F 30.17 in Calm   3.0 mph 83% 0.00 in
05:03 30.4 °F 25.9 °F 30.17 in Calm   2.0 mph 83% 0.00 in
05:08 30.4 °F 25.9 °F 30.17 in ENE 3.0 mph 3.0 mph 83% 0.00 in
05:13 30.5 °F 26.0 °F 30.17 in NE 2.0 mph 2.0 mph 83% 0.00 in
05:18 30.4 °F 26.1 °F 30.17 in Calm   4.0 mph 84% 0.00 in
05:23 30.4 °F 26.1 °F 30.17 in Calm   1.0 mph 84% 0.00 in
05:28 30.3 °F 26.1 °F 30.18 in Calm   1.0 mph 84% 0.00 in
05:33 30.3 °F 26.1 °F 30.17 in Calm   1.0 mph 84% 0.00 in
05:38 30.2 °F 26.0 °F 30.17 in Calm     84% 0.00 in
05:43 30.1 °F 25.9 °F 30.17 in Calm     84% 0.00 in
05:48 30.1 °F 26.1 °F 30.17 in Calm     85% 0.00 in
05:53 30.0 °F 26.0 °F 30.17 in Calm     85% 0.00 in
05:58 30.0 °F 26.3 °F 30.17 in Calm   1.0 mph 86% 0.00 in
06:03 30.0 °F 26.3 °F 30.17 in ENE 1.0 mph 1.0 mph 86% 0.00 in
06:08 30.0 °F 26.3 °F 30.16 in NE 1.0 mph 1.0 mph 86% 0.00 in
06:13 30.1 °F 26.4 °F 30.16 in Calm   2.0 mph 86% 0.00 in
06:18 30.2 °F 26.5 °F 30.16 in NNE 2.0 mph 3.0 mph 86% 0.00 in
06:23 30.3 °F 26.3 °F 30.15 in NNE 3.0 mph 3.0 mph 85% 0.00 in
06:28 30.4 °F 26.4 °F 30.16 in Calm   1.0 mph 85% 0.00 in
06:33 30.4 °F 26.4 °F 30.16 in Calm   1.0 mph 85% 0.00 in
06:38 30.4 °F 26.4 °F 30.16 in Calm     85% 0.00 in
06:43 30.4 °F 26.4 °F 30.16 in ENE 2.0 mph 2.0 mph 85% 0.00 in
06:48 30.5 °F 26.5 °F 30.16 in ENE 1.0 mph 2.0 mph 85% 0.00 in
06:53 30.6 °F 26.4 °F 30.16 in NNE 1.0 mph 2.0 mph 84% 0.00 in
06:58 30.6 °F 26.4 °F 30.16 in Calm   2.0 mph 84% 0.00 in
07:03 30.6 °F 26.4 °F 30.17 in Calm     84% 0.00 in
07:08 30.6 °F 26.6 °F 30.17 in Calm     85% 0.00 in
07:13 30.6 °F 26.6 °F 30.16 in NE 2.0 mph 2.0 mph 85% 0.00 in
07:19 30.5 °F 26.5 °F 30.17 in Calm     85% 0.00 in
07:24 30.5 °F 26.5 °F 30.16 in North 1.0 mph 1.0 mph 85% 0.00 in
07:29 30.6 °F 26.6 °F 30.16 in Calm   2.0 mph 85% 0.00 in
07:34 30.5 °F 26.5 °F 30.16 in Calm     85% 0.00 in
07:39 30.6 °F 26.4 °F 30.16 in Calm   2.0 mph 84% 0.00 in
07:44 30.7 °F 26.5 °F 30.16 in Calm   1.0 mph 84% 0.00 in
07:49 30.8 °F 26.8 °F 30.17 in Calm     85% 0.00 in
07:54 30.8 °F 27.1 °F 30.17 in Calm     86% 0.00 in
07:59 30.8 °F 27.1 °F 30.17 in Calm     86% 0.00 in
08:04 30.8 °F 26.8 °F 30.17 in Calm     85% 0.00 in
08:09 30.9 °F 26.9 °F 30.17 in Calm   1.0 mph 85% 0.00 in
08:14 31.0 °F 27.0 °F 30.17 in Calm   1.0 mph 85% 0.00 in
08:19 31.0 °F 27.0 °F 30.16 in Calm   1.0 mph 85% 0.00 in
08:24 31.1 °F 27.1 °F 30.17 in Calm     85% 0.00 in
08:29 31.2 °F 27.2 °F 30.17 in Calm     85% 0.00 in
08:34 31.3 °F 27.3 °F 30.17 in Calm     85% 0.00 in
08:39 31.4 °F 27.1 °F 30.17 in Calm     84% 0.00 in
08:44 31.5 °F 27.2 °F 30.17 in Calm   1.0 mph 84% 0.00 in
08:49 31.6 °F 27.3 °F 30.17 in Calm     84% 0.00 in
08:54 31.8 °F 27.5 °F 30.17 in Calm     84% 0.00 in
08:59 31.9 °F 27.3 °F 30.17 in Calm     83% 0.00 in
09:04 32.0 °F 27.7 °F 30.17 in Calm     84% 0.00 in
09:09 32.1 °F 27.2 °F 30.17 in Calm     82% 0.00 in
09:14 32.3 °F 27.1 °F 30.17 in Calm   1.0 mph 81% 0.00 in
09:19 32.3 °F 27.1 °F 30.17 in Calm   1.0 mph 81% 0.00 in
09:24 32.5 °F 27.6 °F 30.17 in Calm   1.0 mph 82% 0.00 in
09:29 32.6 °F 27.4 °F 30.17 in East 2.0 mph 2.0 mph 81% 0.00 in
09:34 32.7 °F 27.5 °F 30.17 in SE 1.0 mph 2.0 mph 81% 0.00 in
09:39 32.9 °F 27.7 °F 30.17 in Calm   2.0 mph 81% 0.00 in
09:44 33.1 °F 28.2 °F 30.17 in East 1.0 mph 2.0 mph 82% 0.00 in
09:49 33.3 °F 28.1 °F 30.17 in Calm   1.0 mph 81% 0.00 in
09:54 33.7 °F 28.8 °F 30.17 in Calm     82% 0.00 in
09:59 34.1 °F 28.9 °F 30.17 in East 1.0 mph 1.0 mph 81% 0.00 in
10:04 34.4 °F 29.2 °F 30.17 in ESE 1.0 mph 1.0 mph 81% 0.00 in
10:09 34.8 °F 29.6 °F 30.16 in Calm     81% 0.00 in
10:14 35.0 °F 29.5 °F 30.16 in SSE 1.0 mph 1.0 mph 80% 0.00 in
10:19 35.0 °F 29.5 °F 30.17 in Calm   1.0 mph 80% 0.00 in
10:24 35.0 °F 29.5 °F 30.17 in SSE 1.0 mph 1.0 mph 80% 0.00 in
10:29 35.2 °F 29.7 °F 30.17 in Calm   1.0 mph 80% 0.00 in
10:34 35.5 °F 29.6 °F 30.16 in Calm   2.0 mph 79% 0.00 in
10:39 35.7 °F 29.8 °F 30.15 in ESE 3.0 mph 3.0 mph 79% 0.00 in
10:44 35.6 °F 30.0 °F 30.15 in ESE 4.0 mph 4.0 mph 80% 0.00 in
10:49 35.7 °F 29.8 °F 30.15 in SE 1.0 mph 4.0 mph 79% 0.00 in
10:50 35.7 °F 29.8 °F 30.15 in Calm   4.0 mph 79% 0.00 in
10:55 36.1 °F 30.5 °F 30.15 in SE 2.0 mph 2.0 mph 80% 0.00 in
11:00 36.5 °F 30.9 °F 30.15 in SE 2.0 mph 3.0 mph 80% 0.00 in
11:05 36.8 °F 30.6 °F 30.15 in SSW 2.0 mph 3.0 mph 78% 0.00 in
11:10 37.1 °F 30.9 °F 30.15 in South 1.0 mph 2.0 mph 78% 0.00 in
11:15 37.2 °F 31.0 °F 30.15 in SSW 2.0 mph 3.0 mph 78% 0.00 in
11:20 37.4 °F 30.9 °F 30.15 in SSW 2.0 mph 3.0 mph 77% 0.00 in
11:25 37.7 °F 31.1 °F 30.15 in SW 1.0 mph 3.0 mph 77% 0.00 in
11:30 37.8 °F 31.2 °F 30.14 in West 4.0 mph 4.0 mph 77% 0.00 in
11:35 38.1 °F 30.9 °F 30.14 in WSW 1.0 mph 4.0 mph 75% 0.00 in
11:40 38.5 °F 31.3 °F 30.14 in West 1.0 mph 3.0 mph 75% 0.00 in
11:45 38.5 °F 31.6 °F 30.14 in SSW 2.0 mph 3.0 mph 76% 0.00 in
11:50 38.5 °F 31.0 °F 30.14 in WSW 3.0 mph 4.0 mph 74% 0.00 in
11:55 38.6 °F 30.7 °F 30.14 in SSW 2.0 mph 6.0 mph 73% 0.00 in
12:00 39.0 °F 31.1 °F 30.13 in Calm   5.0 mph 73% 0.00 in
12:05 38.9 °F 30.3 °F 30.13 in WNW 6.0 mph 6.0 mph 71% 0.00 in
12:10 38.7 °F 30.5 °F 30.13 in SW 1.0 mph 4.0 mph 72% 0.00 in
12:15 38.8 °F 30.6 °F 30.13 in West 3.0 mph 5.0 mph 72% 0.00 in
12:20 38.9 °F 30.7 °F 30.13 in WSW 4.0 mph 7.0 mph 72% 0.00 in
12:25 38.9 °F 30.3 °F 30.13 in WSW 2.0 mph 4.0 mph 71% 0.00 in
12:30 38.8 °F 29.9 °F 30.13 in West 4.0 mph 6.0 mph 70% 0.00 in
12:35 38.7 °F 30.5 °F 30.13 in SW 2.0 mph 3.0 mph 72% 0.00 in
12:40 38.8 °F 30.6 °F 30.13 in West 2.0 mph 4.0 mph 72% 0.00 in
12:46 38.9 °F 30.3 °F 30.13 in West 3.0 mph 4.0 mph 71% 0.00 in
12:51 38.8 °F 29.9 °F 30.13 in WSW 4.0 mph 6.0 mph 70% 0.00 in
12:56 38.7 °F 29.4 °F 30.13 in WSW 5.0 mph 5.0 mph 69% 0.00 in
13:01 38.5 °F 29.2 °F 30.12 in WSW 3.0 mph 7.0 mph 69% 0.00 in
13:06 38.6 °F 30.0 °F 30.12 in West 1.0 mph 3.0 mph 71% 0.00 in
13:11 38.7 °F 30.1 °F 30.12 in West 4.0 mph 5.0 mph 71% 0.00 in
13:16 38.7 °F 29.8 °F 30.12 in West 3.0 mph 5.0 mph 70% 0.00 in
13:21 38.6 °F 30.0 °F 30.12 in West 2.0 mph 4.0 mph 71% 0.00 in
13:26 38.5 °F 29.9 °F 30.12 in West 3.0 mph 5.0 mph 71% 0.00 in
13:31 38.7 °F 29.8 °F 30.12 in WSW 4.0 mph 6.0 mph 70% 0.00 in
13:36 38.7 °F 30.1 °F 30.12 in SW 4.0 mph 7.0 mph 71% 0.00 in
13:41 38.8 °F 30.2 °F 30.12 in WSW 5.0 mph 5.0 mph 71% 0.00 in
13:46 38.9 °F 30.7 °F 30.11 in SW 1.0 mph 3.0 mph 72% 0.00 in
13:51 39.2 °F 30.6 °F 30.11 in WSW 2.0 mph 3.0 mph 71% 0.00 in
13:56 39.5 °F 30.9 °F 30.11 in WSW 3.0 mph 4.0 mph 71% 0.00 in
14:01 39.4 °F 31.1 °F 30.11 in WSW 3.0 mph 5.0 mph 72% 0.00 in
14:06 39.4 °F 30.8 °F 30.11 in SW 1.0 mph 5.0 mph 71% 0.00 in
14:11 39.5 °F 30.9 °F 30.10 in SW 5.0 mph 6.0 mph 71% 0.00 in
14:16 39.3 °F 31.0 °F 30.10 in West 1.0 mph 5.0 mph 72% 0.00 in
14:21 39.7 °F 32.1 °F 30.09 in WSW 2.0 mph 6.0 mph 74% 0.00 in
14:26 39.8 °F 31.9 °F 30.08 in ESE 1.0 mph 3.0 mph 73% 0.00 in
14:31 40.1 °F 31.5 °F 30.08 in Calm   1.0 mph 71% 0.00 in
14:36 40.2 °F 31.6 °F 30.08 in SSW 1.0 mph 3.0 mph 71% 0.00 in
14:41 40.3 °F 31.7 °F 30.08 in South 2.0 mph 2.0 mph 71% 0.00 in
14:46 40.3 °F 32.0 °F 30.08 in South 3.0 mph 3.0 mph 72% 0.00 in
14:51 40.5 °F 32.2 °F 30.08 in Calm   1.0 mph 72% 0.00 in
14:56 40.6 °F 32.0 °F 30.07 in Calm   1.0 mph 71% 0.00 in
15:01 40.5 °F 32.5 °F 30.08 in SSE 2.0 mph 2.0 mph 73% 0.00 in
15:06 40.5 °F 32.5 °F 30.07 in WSW 2.0 mph 3.0 mph 73% 0.00 in
15:11 40.1 °F 32.2 °F 30.07 in North 2.0 mph 2.0 mph 73% 0.00 in
15:16 40.0 °F 32.7 °F 30.08 in SW 2.0 mph 3.0 mph 75% 0.00 in
15:21 39.9 °F 33.0 °F 30.07 in WNW 2.0 mph 5.0 mph 76% 0.00 in
15:26 39.6 °F 32.7 °F 30.07 in WNW 1.0 mph 4.0 mph 76% 0.00 in
15:31 39.1 °F 33.2 °F 30.06 in West 1.0 mph 3.0 mph 79% 0.00 in
15:36 38.9 °F 33.3 °F 30.07 in WNW 2.0 mph 3.0 mph 80% 0.00 in
15:41 38.9 °F 33.9 °F 30.07 in Calm   3.0 mph 82% 0.00 in
15:46 38.8 °F 34.4 °F 30.07 in West 2.0 mph 4.0 mph 84% 0.00 in
15:47 38.8 °F 34.4 °F 30.07 in WSW 2.0 mph 3.0 mph 84% 0.00 in
15:52 38.5 °F 34.1 °F 30.07 in WNW 1.0 mph 5.0 mph 84% 0.00 in
15:57 38.5 °F 34.4 °F 30.07 in West 1.0 mph 3.0 mph 85% 0.00 in
16:02 38.3 °F 34.5 °F 30.08 in WNW 3.0 mph 4.0 mph 86% 0.00 in
16:07 38.2 °F 34.4 °F 30.08 in WSW 3.0 mph 3.0 mph 86% 0.00 in
16:12 38.0 °F 34.2 °F 30.07 in WSW 2.0 mph 4.0 mph 86% 0.00 in
16:17 37.8 °F 34.3 °F 30.08 in West 1.0 mph 1.0 mph 87% 0.00 in
16:22 37.7 °F 34.2 °F 30.08 in SSW 2.0 mph 5.0 mph 87% 0.00 in
16:27 37.4 °F 33.9 °F 30.08 in SW 1.0 mph 4.0 mph 87% 0.00 in
16:32 37.3 °F 34.4 °F 30.07 in Calm   1.0 mph 89% 0.00 in
16:38 37.2 °F 34.3 °F 30.07 in Calm   1.0 mph 89% 0.00 in
16:43 37.2 °F 34.3 °F 30.07 in SE 1.0 mph 3.0 mph 89% 0.04 in
16:48 37.2 °F 34.3 °F 30.07 in SE 2.0 mph 2.0 mph 89% 0.04 in
16:52 37.2 °F 34.5 °F 30.07 in SSW 3.0 mph 3.0 mph 90% 0.04 in
16:58 37.1 °F 34.4 °F 30.07 in SW 1.0 mph 4.0 mph 90% 0.00 in
17:03 37.1 °F 34.7 °F 30.07 in South 5.0 mph 7.0 mph 91% 0.00 in
17:08 36.7 °F 34.3 °F 30.07 in SSE 5.0 mph 7.0 mph 91% 0.00 in
17:13 36.4 °F 34.3 °F 30.07 in SE 3.0 mph 5.0 mph 92% 0.00 in
17:18 36.2 °F 34.4 °F 30.07 in SSE 2.0 mph 5.0 mph 93% 0.00 in
17:23 36.1 °F 34.3 °F 30.07 in SSE 4.0 mph 4.0 mph 93% 0.00 in
17:28 35.9 °F 34.1 °F 30.07 in SSW 2.0 mph 6.0 mph 93% 0.00 in
17:33 35.8 °F 34.0 °F 30.07 in SSE 3.0 mph 4.0 mph 93% 0.00 in
17:38 35.7 °F 34.2 °F 30.08 in SSW 2.0 mph 4.0 mph 94% 0.00 in
17:43 35.7 °F 34.2 °F 30.08 in South 2.0 mph 3.0 mph 94% 0.00 in
17:48 35.7 °F 34.2 °F 30.07 in SSE 1.0 mph 4.0 mph 94% 0.00 in
17:53 35.7 °F 34.2 °F 30.06 in SE 4.0 mph 4.0 mph 94% 0.00 in
17:58 35.6 °F 34.0 °F 30.05 in SSE 3.0 mph 4.0 mph 94% 0.00 in
18:03 35.7 °F 34.4 °F 30.05 in SE 4.0 mph 6.0 mph 95% 0.00 in
18:08 35.6 °F 34.3 °F 30.05 in South 2.0 mph 3.0 mph 95% 0.00 in
18:13 35.6 °F 34.3 °F 30.06 in SSW 2.0 mph 4.0 mph 95% 0.00 in
18:18 35.6 °F 34.3 °F 30.06 in South 2.0 mph 4.0 mph 95% 0.00 in
18:23 35.7 °F 34.4 °F 30.06 in SSW 1.0 mph 3.0 mph 95% 0.00 in
18:28 35.7 °F 34.4 °F 30.06 in SW 3.0 mph 6.0 mph 95% 0.00 in
18:33 35.7 °F 34.4 °F 30.06 in SSW 2.0 mph 4.0 mph 95% 0.00 in
18:38 35.7 °F 34.4 °F 30.06 in SW 2.0 mph 4.0 mph 95% 0.00 in
18:43 35.6 °F 34.3 °F 30.06 in West 2.0 mph 5.0 mph 95% 0.00 in
18:48 35.6 °F 34.3 °F 30.06 in SW 2.0 mph 4.0 mph 95% 0.00 in
18:53 35.6 °F 34.3 °F 30.06 in SW 3.0 mph 4.0 mph 95% 0.00 in
18:58 35.6 °F 34.3 °F 30.05 in SW 1.0 mph 3.0 mph 95% 0.00 in
19:03 35.5 °F 34.2 °F 30.05 in South 2.0 mph 4.0 mph 95% 0.00 in
19:08 35.5 °F 34.2 °F 30.05 in SSE 3.0 mph 3.0 mph 95% 0.00 in
19:13 35.5 °F 34.2 °F 30.05 in WSW 1.0 mph 2.0 mph 95% 0.00 in
19:19 35.5 °F 34.2 °F 30.05 in SW 2.0 mph 3.0 mph 95% 0.00 in
19:24 35.5 °F 34.2 °F 30.06 in WSW 1.0 mph 2.0 mph 95% 0.00 in
19:29 35.6 °F 34.3 °F 30.06 in SW 1.0 mph 2.0 mph 95% 0.00 in
19:34 35.6 °F 34.3 °F 30.06 in SSW 2.0 mph 2.0 mph 95% 0.00 in
19:39 35.6 °F 34.3 °F 30.06 in South 2.0 mph 3.0 mph 95% 0.00 in
19:44 35.6 °F 34.3 °F 30.06 in SSW 1.0 mph 2.0 mph 95% 0.00 in
19:49 35.6 °F 34.6 °F 30.06 in Calm   2.0 mph 96% 0.00 in
19:54 35.6 °F 34.6 °F 30.06 in SW 3.0 mph 3.0 mph 96% 0.00 in
19:59 35.7 °F 34.7 °F 30.06 in SW 2.0 mph 3.0 mph 96% 0.00 in
20:04 35.7 °F 34.7 °F 30.06 in SW 3.0 mph 3.0 mph 96% 0.00 in
20:09 35.7 °F 34.7 °F 30.06 in SW 1.0 mph 3.0 mph 96% 0.00 in
20:15 35.7 °F 34.7 °F 30.06 in SSW 1.0 mph 2.0 mph 96% 0.00 in
20:20 35.7 °F 34.7 °F 30.06 in West 1.0 mph 2.0 mph 96% 0.00 in
20:25 35.7 °F 34.7 °F 30.06 in SW 2.0 mph 2.0 mph 96% 0.00 in
20:30 35.8 °F 34.8 °F 30.07 in SW 2.0 mph 3.0 mph 96% 0.00 in
20:35 35.8 °F 34.8 °F 30.07 in SW 2.0 mph 3.0 mph 96% 0.00 in
20:40 35.8 °F 34.8 °F 30.07 in SW 1.0 mph 3.0 mph 96% 0.00 in
20:45 35.9 °F 34.9 °F 30.07 in SW 2.0 mph 3.0 mph 96% 0.00 in
20:51 35.9 °F 34.9 °F 30.07 in SW 2.0 mph 3.0 mph 96% 0.00 in
20:56 35.9 °F 34.9 °F 30.07 in SW 4.0 mph 4.0 mph 96% 0.00 in
21:01 36.0 °F 35.0 °F 30.07 in SW 4.0 mph 4.0 mph 96% 0.00 in
21:06 36.0 °F 35.0 °F 30.07 in SSW 2.0 mph 2.0 mph 96% 0.00 in
21:11 36.0 °F 35.0 °F 30.07 in SW 2.0 mph 3.0 mph 96% 0.00 in
21:16 36.0 °F 35.0 °F 30.07 in SW 2.0 mph 2.0 mph 96% 0.00 in
21:21 36.0 °F 35.0 °F 30.07 in SW 2.0 mph 4.0 mph 96% 0.00 in
21:26 36.1 °F 35.1 °F 30.07 in WSW 1.0 mph 2.0 mph 96% 0.00 in
21:31 36.1 °F 35.1 °F 30.07 in West 1.0 mph 3.0 mph 96% 0.00 in
21:36 36.1 °F 35.1 °F 30.08 in WSW 2.0 mph 4.0 mph 96% 0.00 in
21:41 36.2 °F 35.2 °F 30.08 in SW 2.0 mph 4.0 mph 96% 0.00 in
21:46 36.3 °F 35.3 °F 30.08 in WSW 4.0 mph 5.0 mph 96% 0.00 in
21:51 36.3 °F 35.3 °F 30.08 in WSW 2.0 mph 6.0 mph 96% 0.00 in
21:56 36.3 °F 35.3 °F 30.08 in SW 4.0 mph 5.0 mph 96% 0.00 in
22:01 36.4 °F 35.4 °F 30.08 in West 3.0 mph 6.0 mph 96% 0.00 in
22:06 36.4 °F 35.4 °F 30.08 in West 4.0 mph 5.0 mph 96% 0.00 in
22:11 36.4 °F 35.4 °F 30.08 in SW 4.0 mph 4.0 mph 96% 0.00 in
22:16 36.5 °F 35.5 °F 30.08 in WSW 4.0 mph 6.0 mph 96% 0.00 in
22:21 36.5 °F 35.5 °F 30.08 in West 4.0 mph 6.0 mph 96% 0.00 in
22:26 36.6 °F 35.6 °F 30.08 in West 4.0 mph 5.0 mph 96% 0.00 in
22:31 36.7 °F 35.7 °F 30.08 in West 2.0 mph 5.0 mph 96% 0.00 in
22:36 36.7 °F 35.7 °F 30.08 in West 3.0 mph 7.0 mph 96% 0.00 in
22:41 36.8 °F 35.8 °F 30.08 in West 3.0 mph 6.0 mph 96% 0.00 in
22:47 36.8 °F 35.8 °F 30.08 in WSW 4.0 mph 5.0 mph 96% 0.00 in
22:52 36.8 °F 35.8 °F 30.08 in WNW 3.0 mph 7.0 mph 96% 0.00 in
22:57 36.8 °F 35.8 °F 30.08 in WNW 5.0 mph 6.0 mph 96% 0.00 in
23:02 36.8 °F 35.8 °F 30.08 in West 3.0 mph 7.0 mph 96% 0.00 in
23:07 36.9 °F 35.9 °F 30.08 in WSW 4.0 mph 9.0 mph 96% 0.00 in
23:12 36.9 °F 35.9 °F 30.08 in WNW 5.0 mph 7.0 mph 96% 0.00 in
23:17 36.9 °F 35.9 °F 30.08 in WNW 4.0 mph 9.0 mph 96% 0.00 in
23:22 36.9 °F 35.9 °F 30.07 in WNW 7.0 mph 7.0 mph 96% 0.00 in
23:27 37.0 °F 36.0 °F 30.07 in WNW 8.0 mph 8.0 mph 96% 0.00 in
23:32 37.0 °F 36.0 °F 30.07 in West 3.0 mph 7.0 mph 96% 0.00 in
23:37 37.0 °F 36.0 °F 30.07 in West 5.0 mph 8.0 mph 96% 0.00 in
23:42 37.0 °F 36.0 °F 30.07 in WNW 3.0 mph 9.0 mph 96% 0.00 in
23:47 37.1 °F 36.1 °F 30.06 in WNW 5.0 mph 9.0 mph 96% 0.00 in
23:52 37.1 °F 36.1 °F 30.07 in West 3.0 mph 5.0 mph 96% 0.00 in
23:57 37.1 °F 36.1 °F 30.06 in WSW 2.0 mph 6.0 mph 96% 0.00 in
Compliments of Weather Underground